Location: PSU-Greenbush Astrophysical Observatory
(37.5140°N, 94.9880°W)
Time: 22:38:29
(UTC-06:00)

Altair - Pass Details

Date: 27 January 2020
Orbit: 1502 x 1682 km, 47.2° (Epoch: 16 February)

Event Time Altitude Azimuth Distance (km) Brightness Sun altitude
Rises 15:07:12 0° 301° (WNW) 4,935 10.3 23.3°
Reaches altitude 10° 15:10:28 10° 298° (WNW) 3,937 9.9 22.9°
Maximum altitude 15:20:14 57° 223° (SW) 1,895 9.1 21.6°
Drops below altitude 10° 15:29:42 10° 148° (SSE) 3,815 9.8 20.3°
Sets 15:32:49 0° 144° (SE) 4,774 10.2 19.8°
